DW9615 Home Hill AU current weather conditions

sailwx.info

Wind from 064 at 6 knots gusting 12

Air temperature 28.3° C
Dewpoint 20.3° C

Last reported at 2018-Jan-19 06:58 UTC.
Time now 2018-Jan-19 07:59 UTC

Location: S 19°40' E 147°25'.
View on Google Maps.

See reports from other nearby stations

  
Tides and Currents Weather Stations Pressure Air Temp Water Temp Dewpoint Dewpoint Depression Visibility Wind Speed Wind Dir Waves Ship Positions
date/time (UTC)wind fromknots sea level pressurealtimeterstation pressurevisibilityair tempwater tempwave heightnotes
2018-Jan-19 06:58 064 6 gusting 12 28.3
2018-Jan-19 06:43 058 6 gusting 15 28.9
2018-Jan-19 06:28 054 6 gusting 13 28.9
2018-Jan-19 06:13 025 7 gusting 14 28.9
2018-Jan-19 05:58 055 6 gusting 13 28.9
2018-Jan-19 05:43 018 5 gusting 14 29.4
2018-Jan-19 05:28 072 4 gusting 10 28.9
2018-Jan-19 05:13 079 5 gusting 14 29.4
2018-Jan-19 04:58 078 4 gusting 11 30.0
2018-Jan-19 04:43 039 4 gusting 13 30.0
2018-Jan-19 04:28 054 6 gusting 12 29.4
2018-Jan-19 04:13 079 6 gusting 13 29.4
2018-Jan-19 03:58 058 5 gusting 12 29.4
2018-Jan-19 03:43 025 6 gusting 13 29.4
2018-Jan-19 03:28 061 1 gusting 11 29.4
2018-Jan-19 03:13 039 6 gusting 11 30.0
2018-Jan-19 02:58 066 2 gusting 11 30.0
2018-Jan-19 02:43 075 7 gusting 11 29.4
2018-Jan-19 02:28 071 3 gusting 12 29.4
2018-Jan-19 02:13 074 2 gusting 9 30.0
2018-Jan-19 01:58 044 5 gusting 11 29.4
2018-Jan-19 01:43 081 4 gusting 11 29.4
2018-Jan-19 01:28 055 5 gusting 12 30.0
2018-Jan-19 01:13 046 2 gusting 8 30.0
2018-Jan-19 00:58 093 1 gusting 9 29.4
2018-Jan-19 00:43 170 2 gusting 9 28.9
2018-Jan-19 00:28 093 2 gusting 13 28.9
2018-Jan-19 00:12 081 3 gusting 12 28.9
2018-Jan-18 23:57 065 3 gusting 9 28.9
2018-Jan-18 23:42 117 3 gusting 10 28.9
2018-Jan-18 23:27 139 2 gusting 10 28.3
2018-Jan-18 23:12 133 3 gusting 10 28.3
2018-Jan-18 22:57 143 3 gusting 9 27.8
2018-Jan-18 22:42 111 2 gusting 7 27.8
2018-Jan-18 22:27 094 2 gusting 9 27.2
2018-Jan-18 22:12 133 4 gusting 13 26.7
2018-Jan-18 21:57 148 1 gusting 8 26.1
2018-Jan-18 21:42 139 2 gusting 6 25.0
2018-Jan-18 21:27 175 23.9
2018-Jan-18 21:12 165 22.8
2018-Jan-18 20:57 197 21.7
2018-Jan-18 20:42 181 21.1
2018-Jan-18 20:27 170 20.6
2018-Jan-18 20:12 170 20.6
2018-Jan-18 19:57 161 20.6
2018-Jan-18 19:42 156 20.6
2018-Jan-18 19:27 154 21.1
2018-Jan-18 19:12 159 21.1
2018-Jan-18 18:57 165 21.1
2018-Jan-18 18:42 165 21.1
2018-Jan-18 18:27 148 21.1
2018-Jan-18 18:12 160 21.7
2018-Jan-18 17:57 141 21.7
2018-Jan-18 17:42 133 0 gusting 4 21.7
2018-Jan-18 17:27 148 21.7
2018-Jan-18 17:11 146 21.7
2018-Jan-18 16:56 157 21.7
2018-Jan-18 16:41 150 21.7
2018-Jan-18 16:26 150 21.7
2018-Jan-18 16:11 151 22.2
2018-Jan-18 15:56 156 22.2
2018-Jan-18 15:41 157 22.2
2018-Jan-18 15:26 149 22.2
2018-Jan-18 15:11 148 22.2
2018-Jan-18 14:56 136 22.8
2018-Jan-18 14:41 142 22.8
2018-Jan-18 14:26 143 22.8
2018-Jan-18 14:11 133 22.8
2018-Jan-18 13:56 129 22.8
2018-Jan-18 13:41 136 23.3
2018-Jan-18 13:26 123 22.8
2018-Jan-18 13:11 135 22.8
2018-Jan-18 12:56 132 22.8
2018-Jan-18 12:41 145 23.3
2018-Jan-18 12:25 128 23.3
2018-Jan-18 12:10 131 23.9
2018-Jan-18 11:55 104 23.9
2018-Jan-18 11:40 093 24.4
2018-Jan-18 11:25 091 24.4
2018-Jan-18 11:10 085 25.0
2018-Jan-18 10:55 091 24.4
2018-Jan-18 10:40 050 24.4
2018-Jan-18 10:25 080 25.0
2018-Jan-18 10:10 121 25.0
2018-Jan-18 09:56 069 0 gusting 6 25.0
2018-Jan-18 09:40 082 0 gusting 6 25.6
2018-Jan-18 09:25 089 3 gusting 8 25.6
2018-Jan-18 09:10 081 1 gusting 8 26.1
2018-Jan-18 08:55 077 2 gusting 11 26.7
2018-Jan-18 08:40 060 2 gusting 10 26.7
2018-Jan-18 08:25 077 5 gusting 15 27.2
2018-Jan-18 08:11 073 7 gusting 13 27.2
2018-Jan-18 07:55 075 6 gusting 13 27.8
2018-Jan-18 07:40 074 7 gusting 16 28.3
2018-Jan-18 07:25 081 11 gusting 18 28.3
2018-Jan-18 07:10 073 9 gusting 16 28.9
2018-Jan-18 06:55 070 9 gusting 18 28.9
2018-Jan-18 06:40 068 9 gusting 19 28.9
2018-Jan-18 06:25 071 9 gusting 19 29.4
2018-Jan-18 06:10 071 9 gusting 19 29.4
2018-Jan-18 05:55 048 9 gusting 17 29.4
2018-Jan-18 05:40 081 11 gusting 19 29.4
2018-Jan-18 05:25 065 12 gusting 20 29.4
2018-Jan-18 05:09 048 12 gusting 18 29.4
2018-Jan-18 04:54 080 8 gusting 20 29.4
2018-Jan-18 04:39 036 9 gusting 18 29.4
2018-Jan-18 04:24 067 11 gusting 19 29.4
2018-Jan-18 04:09 054 8 gusting 17 29.4
2018-Jan-18 03:54 081 9 gusting 16 30.0
2018-Jan-18 03:39 087 7 gusting 17 30.0
2018-Jan-18 03:24 051 7 gusting 17 30.0
2018-Jan-18 03:09 050 7 gusting 18 29.4
2018-Jan-18 02:54 077 6 gusting 14 30.0
2018-Jan-18 02:39 130 6 gusting 15 30.0
2018-Jan-18 02:24 077 5 gusting 15 30.0
2018-Jan-18 02:09 087 7 gusting 13 30.0
2018-Jan-18 01:54 056 11 gusting 17 29.4
2018-Jan-18 01:38 108 7 gusting 14 29.4
2018-Jan-18 01:23 096 4 gusting 16 30.0
2018-Jan-18 01:08 066 4 gusting 13 29.4
2018-Jan-18 00:53 083 1 gusting 12 30.0
2018-Jan-18 00:38 161 3 gusting 13 28.9
2018-Jan-18 00:23 080 6 gusting 12 29.4
2018-Jan-18 00:08 100 1 gusting 9 29.4
2018-Jan-17 23:53 076 3 gusting 8 29.4
2018-Jan-17 23:38 080 3 gusting 10 29.4
2018-Jan-17 23:23 175 1 gusting 9 28.9
2018-Jan-17 23:08 139 3 gusting 11 28.9
2018-Jan-17 22:53 054 1 gusting 10 28.3
2018-Jan-17 22:38 135 1 gusting 7 28.3
2018-Jan-17 22:22 153 0 gusting 9 27.8